Three Rivers, MI

1:33 PM EST on December 10, 2016 (GMT -0500)
Three Rivers Municipal-Haines

Weather History for KHAI - January, 2013

Change the Weather History Date:

Tuesday, January 8, 2013

  Actual Average Record
Temperature  
Mean Temperature 28 °F -  
Max Temperature 36 °F 27 °F 60 °F (1965)
Min Temperature 21 °F 11 °F -16 °F (2014)
Degree Days  
Heating Degree Days 36    
Moisture  
Dew Point 23 °F    
Average Humidity 78    
Maximum Humidity 89    
Minimum Humidity 67    
Precipitation  
Precipitation 0.00 in - - ()
Sea Level Pressure  
Sea Level Pressure 30.16 in    
Wind  
Wind Speed 8 mph (South)    
Max Wind Speed 12 mph    
Max Gust Speed -    
Visibility 7 miles    
Events      
Averages and records for this station are not official NWS values.
T = Trace of Precipitation, MM = Missing Value Source: NWS Daily Summary

Daily Weather History Graph

Daily Weather History Graph

Search for Another Location

Airport or City:

Trip Planner

Search our weather history database for the weather conditions in past years. The results will help you decide how hot, cold, wet, or windy it might be!

Date:

Astronomy

Jan. 08, 2013 Rise Set
Actual Time 8:09 AM EST 5:28 PM EST
Civil Twilight 7:38 AM EST 6:00 PM EST
Nautical Twilight 7:03 AM EST 6:34 PM EST
Astronomical Twilight 6:30 AM EST 7:08 PM EST
Moon 4:41 AM EST (1/8) 2:30 PM EST (1/8)
Length of Visible Light 10h 21m
Length of Day
9h 18m
Waning Crescent, 14% of the Moon is Illuminated
Jan 8
Waning Crescent
Jan 11
New
Jan 18
First Quarter
Jan 26
Full
Feb 3
Last Quarter

Hourly Weather History & Observations

Time (EST) Temp. Windchill Dew Point Humidity Pressure Visibility Wind Dir Wind Speed Gust Speed Precip Events Conditions
12:15 AM 27.1 °F 16.9 °F 21.6 °F 80% 30.15 in 10.0 mi SSW 11.5 mph - N/A   Clear
12:34 AM 27.0 °F 17.3 °F 21.4 °F 79% 30.14 in 10.0 mi SSW 10.4 mph - N/A   Clear
12:55 AM 26.6 °F 17.5 °F 21.2 °F 80% 30.15 in 10.0 mi SSW 9.2 mph - N/A   Clear
1:14 AM 26.2 °F 17.8 °F 21.0 °F 81% 30.14 in 10.0 mi SSW 8.1 mph - N/A   Clear
1:35 AM 26.4 °F 16.6 °F 21.2 °F 81% 30.15 in 10.0 mi SSW 10.4 mph - N/A   Clear
1:55 AM 26.6 °F 16.8 °F 21.4 °F 81% 30.15 in 10.0 mi SSW 10.4 mph - N/A   Clear
2:15 AM 27.1 °F 17.5 °F 21.7 °F 80% 30.15 in 10.0 mi SSW 10.4 mph - N/A   Clear
2:35 AM 27.0 °F 17.3 °F 21.6 °F 80% 30.15 in 10.0 mi SSW 10.4 mph - N/A   Clear
2:54 AM 26.6 °F 17.5 °F 21.4 °F 81% 30.15 in 10.0 mi SW 9.2 mph - N/A   Clear
3:15 AM 26.6 °F 16.8 °F 21.4 °F 81% 30.15 in 10.0 mi SSW 10.4 mph - N/A   Clear
3:35 AM 26.6 °F 17.5 °F 21.4 °F 81% 30.15 in 7.0 mi SW 9.2 mph - N/A   Clear
3:54 AM 26.2 °F 17.1 °F 21.2 °F 81% 30.15 in 7.0 mi SSW 9.2 mph - N/A   Clear
4:15 AM 26.6 °F 17.5 °F 21.2 °F 80% 30.15 in 7.0 mi SW 9.2 mph - N/A   Clear
4:35 AM 26.4 °F 17.3 °F 21.6 °F 82% 30.15 in 7.0 mi SW 9.2 mph - N/A   Clear
4:54 AM 26.1 °F 16.2 °F 21.2 °F 82% 30.15 in 7.0 mi SSW 10.4 mph - N/A   Clear
5:15 AM 25.7 °F 16.4 °F 21.2 °F 83% 30.14 in 7.0 mi SSW 9.2 mph - N/A   Clear
5:35 AM 25.3 °F 16.7 °F 21.0 °F 84% 30.14 in 7.0 mi SSW 8.1 mph - N/A   Clear
5:54 AM 25.2 °F 18.3 °F 20.8 °F 84% 30.15 in 7.0 mi SSW 5.8 mph - N/A   Clear
6:15 AM 24.3 °F 19.9 °F 20.3 °F 85% 30.15 in 7.0 mi South 3.5 mph - N/A   Clear
6:35 AM 24.6 °F 20.3 °F 20.7 °F 85% 30.15 in 7.0 mi South 3.5 mph - N/A   Clear
6:55 AM 23.5 °F 19.1 °F 19.9 °F 86% 30.16 in 7.0 mi South 3.5 mph - N/A   Clear
7:15 AM 23.2 °F 18.7 °F 19.6 °F 86% 30.17 in 5.0 mi South 3.5 mph - N/A   Clear
7:35 AM 23.2 °F - 19.8 °F 87% 30.17 in 5.0 mi Calm Calm - N/A   Clear
7:55 AM 23.2 °F 17.2 °F 19.8 °F 87% 30.17 in 5.0 mi South 4.6 mph - N/A   Clear
8:15 AM 21.9 °F 17.2 °F 19.2 °F 89% 30.17 in 4.0 mi South 3.5 mph - N/A   Clear
8:34 AM 22.3 °F - 19.4 °F 89% 30.18 in 4.0 mi Calm Calm - N/A   Clear
8:55 AM 23.4 °F 18.9 °F 20.3 °F 88% 30.19 in 4.0 mi South 3.5 mph - N/A   Clear
9:15 AM 23.7 °F 16.6 °F 20.5 °F 87% 30.20 in 4.0 mi South 5.8 mph - N/A   Clear
9:34 AM 26.2 °F 18.6 °F 21.9 °F 84% 30.21 in 5.0 mi South 6.9 mph - N/A   Clear
9:55 AM 27.7 °F 20.4 °F 22.6 °F 81% 30.21 in 5.0 mi SSW 6.9 mph - N/A   Haze
10:15 AM 29.1 °F 23.0 °F 23.2 °F 78% 30.22 in 5.0 mi SSW 5.8 mph - N/A   Haze
10:34 AM 30.2 °F 21.9 °F 23.7 °F 77% 30.22 in 5.0 mi SSW 9.2 mph - N/A   Haze
10:55 AM 30.9 °F 24.3 °F 23.9 °F 75% 30.22 in 5.0 mi SSW 6.9 mph - N/A   Haze
11:15 AM 31.6 °F 23.7 °F 24.6 °F 75% 30.22 in 7.0 mi South 9.2 mph - N/A   Clear
11:35 AM 32.2 °F 23.2 °F 24.8 °F 74% 30.21 in 7.0 mi SSW 11.5 mph - N/A   Clear
11:55 AM 32.9 °F 25.3 °F 25.5 °F 74% 30.20 in 7.0 mi South 9.2 mph - N/A   Clear
12:14 PM 33.4 °F 25.4 °F 25.5 °F 73% 30.20 in 7.0 mi South 10.4 mph - N/A   Clear
12:35 PM 33.8 °F 26.4 °F 25.3 °F 71% 30.19 in 7.0 mi South 9.2 mph - N/A   Clear
12:55 PM 33.8 °F 26.4 °F 25.7 °F 72% 30.19 in 7.0 mi South 9.2 mph - N/A   Clear
1:15 PM 33.8 °F 27.7 °F 25.5 °F 72% 30.18 in 7.0 mi SSW 6.9 mph - N/A   Clear
1:35 PM 34.3 °F 27.0 °F 25.7 °F 71% 30.18 in 7.0 mi SSW 9.2 mph - N/A   Clear
1:54 PM 34.5 °F 28.6 °F 25.7 °F 70% 30.17 in 7.0 mi South 6.9 mph - N/A   Clear
2:15 PM 34.9 °F 28.3 °F 25.9 °F 70% 30.16 in 7.0 mi South 8.1 mph - N/A   Clear
2:55 PM 35.6 °F 29.2 °F 26.1 °F 68% 30.16 in 7.0 mi South 8.1 mph - N/A   Clear
3:15 PM 35.8 °F 28.8 °F 26.1 °F 68% 30.17 in 10.0 mi South 9.2 mph - N/A   Clear
3:34 PM 36.0 °F 30.3 °F 26.4 °F 68% 30.17 in 7.0 mi South 6.9 mph - N/A   Clear
3:55 PM 36.0 °F 31.1 °F 26.4 °F 68% 30.17 in 7.0 mi South 5.8 mph - N/A   Clear
4:15 PM 36.1 °F 31.4 °F 26.6 °F 68% 30.17 in 7.0 mi South 5.8 mph - N/A   Clear
4:34 PM 36.7 °F 30.5 °F 26.6 °F 67% 30.18 in 7.0 mi South 8.1 mph - N/A   Clear
4:55 PM 35.6 °F 29.2 °F 26.4 °F 69% 30.17 in 7.0 mi South 8.1 mph - N/A   Clear
5:15 PM 34.7 °F 29.6 °F 25.7 °F 70% 30.17 in 7.0 mi SSE 5.8 mph - N/A   Clear
5:34 PM 33.6 °F 28.4 °F 25.5 °F 72% 30.17 in 7.0 mi South 5.8 mph - N/A   Clear
5:55 PM 33.1 °F 27.7 °F 25.5 °F 74% 30.17 in 10.0 mi SSE 5.8 mph - N/A   Clear
6:15 PM 32.5 °F 27.1 °F 25.3 °F 75% 30.16 in 10.0 mi SSE 5.8 mph - N/A   Clear
6:34 PM 32.4 °F 26.9 °F 25.2 °F 75% 30.17 in 10.0 mi South 5.8 mph - N/A   Clear
6:55 PM 31.8 °F 26.2 °F 24.6 °F 75% 30.16 in 7.0 mi South 5.8 mph - N/A   Clear
7:15 PM 31.1 °F 24.5 °F 23.9 °F 75% 30.16 in 7.0 mi South 6.9 mph - N/A   Clear
7:35 PM 32.0 °F 24.2 °F 24.6 °F 74% 30.16 in 10.0 mi South 9.2 mph - N/A   Clear
7:55 PM 31.8 °F 24.6 °F 24.1 °F 73% 30.16 in 10.0 mi South 8.1 mph - N/A   Clear
8:14 PM 31.1 °F 23.7 °F 23.9 °F 75% 30.15 in 7.0 mi South 8.1 mph - N/A   Clear
8:35 PM 31.1 °F 23.1 °F 24.1 °F 75% 30.15 in 10.0 mi South 9.2 mph - N/A   Clear
8:55 PM 31.1 °F 23.7 °F 24.3 °F 76% 30.14 in 7.0 mi South 8.1 mph - N/A   Clear
9:14 PM 30.0 °F 24.1 °F 23.5 °F 77% 30.15 in 7.0 mi South 5.8 mph - N/A   Clear
9:35 PM 30.6 °F 23.8 °F 24.3 °F 77% 30.15 in 7.0 mi South 6.9 mph - N/A   Clear
9:55 PM 30.2 °F 22.6 °F 23.9 °F 77% 30.14 in 7.0 mi SSW 8.1 mph - N/A   Clear
10:14 PM 30.9 °F 25.2 °F 24.8 °F 78% 30.14 in 7.0 mi SSW 5.8 mph - N/A   Clear
10:35 PM 30.7 °F 22.6 °F 24.8 °F 79% 30.12 in 7.0 mi South 9.2 mph - N/A   Clear
11:15 PM 31.3 °F 22.7 °F 25.5 °F 79% 30.11 in 7.0 mi South 10.4 mph - N/A   Clear
11:35 PM 32.0 °F 23.6 °F 25.7 °F 78% 30.11 in 7.0 mi South 10.4 mph - N/A   Clear